Retour au catalogue

STARLINK-3194

ActifCommunicationsVLEO
NORAD 49758·PAYLOAD·🇺🇸 United States

Lancé Dec 2, 2021 depuis Cape Canaveral Space Force Station

Loading…

Prochains Passages (prochaines 24 heures)

TLE

FraisSource: CelesTrak SupGP

Époque: Sep 15, 2026, 01:13 UTC

1 49758C 21115AL  26258.05118056  .00008168  00000+0  24136-3 0  2581
2 49758  53.1603 354.8599 0001190  80.3429 267.7291 15.34381272    14

Suivez STARLINK-3194 en temps réel avec AllMySat

Download on the App Store